TimeCST,TemperatureF,Dew PointF,Humidity,Sea Level PressureIn,VisibilityMPH,Wind Direction,Wind SpeedMPH,Gust SpeedMPH,PrecipitationIn,Events,Conditions,WindDirDegrees,DateUTC
12:53 AM,26.1,19.9,78,30.27,10.0,West,3.5,-,N/A,,Clear,280,2013-01-03 06:53:00
1:53 AM,26.1,19.9,78,30.28,9.0,West,5.8,-,N/A,,Clear,270,2013-01-03 07:53:00
2:53 AM,26.1,21.0,81,30.30,9.0,West,6.9,-,N/A,,Clear,280,2013-01-03 08:53:00
3:53 AM,26.1,21.0,81,30.31,9.0,WNW,6.9,-,N/A,,Clear,290,2013-01-03 09:53:00
4:53 AM,25.0,21.0,85,30.32,9.0,WNW,4.6,-,N/A,,Clear,290,2013-01-03 10:53:00
5:53 AM,25.0,21.0,85,30.35,9.0,WNW,8.1,-,N/A,,Clear,300,2013-01-03 11:53:00
6:53 AM,24.1,21.0,88,30.37,8.0,WNW,5.8,-,N/A,,Clear,300,2013-01-03 12:53:00
7:53 AM,25.0,21.9,88,30.38,7.0,West,4.6,-,N/A,,Clear,270,2013-01-03 13:53:00
8:53 AM,28.9,24.1,82,30.40,9.0,WNW,3.5,-,N/A,,Clear,290,2013-01-03 14:53:00
9:53 AM,32.0,26.1,79,30.43,10.0,NW,8.1,-,N/A,,Clear,310,2013-01-03 15:53:00
10:53 AM,35.1,26.1,70,30.44,10.0,NNW,8.1,-,N/A,,Clear,330,2013-01-03 16:53:00
11:53 AM,37.9,24.1,57,30.42,10.0,NNW,10.4,-,N/A,,Clear,330,2013-01-03 17:53:00
12:53 PM,39.9,24.1,53,30.39,10.0,Variable,5.8,-,N/A,,Clear,0,2013-01-03 18:53:00
1:53 PM,41.0,24.1,51,30.37,10.0,WNW,6.9,-,N/A,,Clear,300,2013-01-03 19:53:00
2:53 PM,41.0,24.1,51,30.37,10.0,NW,5.8,-,N/A,,Clear,310,2013-01-03 20:53:00
3:53 PM,39.9,24.1,53,30.38,10.0,WNW,5.8,-,N/A,,Clear,300,2013-01-03 21:53:00
4:53 PM,37.0,24.1,59,30.40,10.0,NNW,3.5,-,N/A,,Clear,330,2013-01-03 22:53:00
5:53 PM,35.1,24.1,64,30.40,10.0,Calm,Calm,-,N/A,,Clear,0,2013-01-03 23:53:00
6:53 PM,30.9,23.0,72,30.42,10.0,Calm,Calm,-,N/A,,Clear,0,2013-01-04 00:53:00
7:53 PM,33.1,21.9,64,30.44,10.0,SW,3.5,-,N/A,,Clear,230,2013-01-04 01:53:00
8:53 PM,32.0,23.0,69,30.43,10.0,West,4.6,-,N/A,,Overcast,270,2013-01-04 02:53:00
9:53 PM,33.1,21.9,64,30.43,10.0,WNW,3.5,-,N/A,,Mostly Cloudy,290,2013-01-04 03:53:00
10:53 PM,30.9,21.9,69,30.43,10.0,WSW,4.6,-,N/A,,Scattered Clouds,240,2013-01-04 04:53:00
11:53 PM,30.0,21.9,72,30.42,10.0,Calm,Calm,-,N/A,,Clear,0,2013-01-04 05:53:00